Location: Avoca
(45.7167°N, 74.7000°W)
Time: 01:49:29
(UTC+00:00)

X-37B - Visible Passes

Search period start: 29 November 2022 00:00
Search period end: 09 December 2022 00:00
Orbit: 277 x 277 km, 45.0° (Epoch: 01 November)

Date Brightness Start Highest point End Pass type
(mag) Time Alt. Az. Time Alt. Az. Time Alt. Az.
07 Dec 3.3 23:32:34 10° SW 23:32:48 12° SW 23:32:48 12° SW visible
08 Dec 2.6 22:00:49 10° SSE 22:01:38 11° SSE 22:02:26 10° SE visible
08 Dec 3.2 23:33:02 10° WSW 23:33:32 14° SW 23:33:32 14° SW visible
